| time (UTC) | temp C | wind direction | speed KPH | gust KPH | rain 1hr cm | rain 24hr cm | rain mn cm | humidity % | barometer mb |
| 20260505224555 | 11 | 145 | 1.6 | 12.9 | 0.00 | 0.00 | 0.00 | 81 | 1028.0 |
| 20260505223057 | 11 | 78 | 1.6 | 6.4 | 0.00 | 0.00 | 0.00 | 80 | 1027.8 |
| 20260505221558 | 12 | 0 | 1.6 | 11.3 | 0.00 | 0.00 | 0.00 | 80 | 1027.7 |
| 20260505220057 | 12 | 98 | 1.6 | 6.4 | 0.00 | 0.00 | 0.00 | 79 | 1027.6 |
| 20260505214559 | 12 | 84 | 0.0 | 4.8 | 0.00 | 0.00 | 0.00 | 79 | 1027.3 |
| 20260505213102 | 12 | 0 | 0.0 | 6.4 | 0.00 | 0.00 | 0.00 | 79 | 1027.3 |
| 20260505211611 | 12 | 107 | 0.0 | 9.7 | 0.00 | 0.00 | 0.00 | 79 | 1027.1 |
| 20260505204600 | 12 | 93 | 1.6 | 9.7 | 0.00 | 0.00 | 0.00 | 79 | 1026.8 |
| 20260505203058 | 12 | 98 | 1.6 | 12.9 | 0.00 | 0.00 | 0.00 | 79 | 1026.9 |
| 20260505201600 | 12 | 98 | 1.6 | 9.7 | 0.00 | 0.00 | 0.00 | 80 | 1026.8 |
| 20260505200055 | 11 | 0 | 1.6 | 6.4 | 0.00 | 0.00 | 0.00 | 79 | 1026.9 |
| 20260505194607 | 11 | 84 | 0.0 | 9.7 | 0.00 | 0.00 | 0.00 | 79 | 1026.8 |
| 20260505193054 | 11 | 88 | 0.0 | 6.4 | 0.00 | 0.00 | 0.00 | 79 | 1027.0 |
| 20260505191556 | 11 | 75 | 0.0 | 4.8 | 0.00 | 0.00 | 0.00 | 78 | 1026.9 |
| 20260505190100 | 11 | 88 | 0.0 | 4.8 | 0.00 | 0.00 | 0.00 | 77 | 1026.8 |
| 20260505184553 | 12 | 86 | 0.0 | 4.8 | 0.00 | 0.00 | 0.00 | 76 | 1026.7 |
| 20260505183053 | 12 | 0 | 1.6 | 6.4 | 0.00 | 0.00 | 0.00 | 75 | 1026.8 |
| 20260505181557 | 12 | 0 | 1.6 | 6.4 | 0.00 | 0.00 | 0.00 | 74 | 1026.8 |
| 20260505180058 | 12 | 83 | 1.6 | 9.7 | 0.00 | 0.00 | 0.00 | 73 | 1026.7 |
| 20260505174608 | 13 | 0 | 1.6 | 6.4 | 0.00 | 0.00 | 0.00 | 72 | 1026.5 |
| 20260505173105 | 13 | 74 | 1.6 | 8.0 | 0.00 | 0.00 | 0.00 | 71 | 1026.6 |
| 20260505171605 | 13 | 84 | 1.6 | 6.4 | 0.00 | 0.00 | 0.00 | 71 | 1026.5 |
| 20260505170059 | 13 | 65 | 1.6 | 9.7 | 0.00 | 0.00 | 0.00 | 71 | 1026.4 |
| 20260505164622 | 13 | 0 | 1.6 | 12.9 | 0.00 | 0.00 | 0.00 | 72 | 1026.4 |
| 20260505163107 | 13 | 123 | 1.6 | 9.7 | 0.00 | 0.00 | 0.00 | 73 | 1026.3 |
| 20260505161616 | 13 | 0 | 0.0 | 3.2 | 0.00 | 0.00 | 0.00 | 74 | 1026.1 |
| 20260505153109 | 13 | 104 | 0.0 | 4.8 | 0.00 | 0.00 | 0.00 | 75 | 1026.1 |
| 20260505151607 | 13 | 71 | 1.6 | 9.7 | 0.00 | 0.00 | 0.00 | 79 | 1026.0 |
| 20260505130109 | 13 | 0 | 0.0 | 0.0 | 0.00 | 0.00 | 0.00 | 80 | 1026.3 |
| 20260505124602 | 13 | 0 | 0.0 | 1.6 | 0.00 | 0.00 | 0.00 | 80 | 1026.1 |
| 20260505123053 | 13 | 0 | 0.0 | 0.0 | 0.00 | 0.00 | 0.00 | 80 | 1026.1 |
| 20260505121552 | 14 | 0 | 0.0 | 1.6 | 0.00 | 0.00 | 0.00 | 80 | 1026.1 |
| 20260505120107 | 14 | 0 | 0.0 | 3.2 | 0.00 | 0.00 | 0.00 | 79 | 1026.0 |
| 20260505114553 | 14 | 0 | 0.0 | 1.6 | 0.00 | 0.00 | 0.00 | 79 | 1025.9 |
| 20260505113107 | 14 | 0 | 0.0 | 0.0 | 0.00 | 0.00 | 0.00 | 79 | 1025.8 |
| 20260505111602 | 15 | 0 | 0.0 | 3.2 | 0.00 | 0.00 | 0.00 | 78 | 1025.8 |
| 20260505110106 | 15 | 0 | 0.0 | 0.0 | 0.00 | 0.00 | 0.00 | 79 | 1025.5 |
| 20260505101603 | 16 | 147 | 0.0 | 0.0 | 0.00 | 0.00 | 0.00 | 74 | 1025.2 |
| 20260505100059 | 16 | 0 | 0.0 | 0.0 | 0.00 | 0.00 | 0.00 | 73 | 1025.1 |
| 20260505094555 | 17 | 0 | 0.0 | 1.6 | 0.00 | 0.00 | 0.00 | 72 | 1025.0 |
| 20260505093107 | 17 | 0 | 0.0 | 3.2 | 0.00 | 0.00 | 0.00 | 71 | 1024.9 |
| 20260505091556 | 18 | 0 | 0.0 | 3.2 | 0.00 | 0.00 | 0.00 | 69 | 1024.9 |
| 20260505090056 | 18 | 0 | 0.0 | 3.2 | 0.00 | 0.00 | 0.00 | 67 | 1024.9 |
| 20260505084552 | 18 | 143 | 0.0 | 4.8 | 0.00 | 0.00 | 0.00 | 66 | 1024.8 |
| 20260505083103 | 19 | 255 | 0.0 | 6.4 | 0.00 | 0.00 | 0.00 | 67 | 1024.8 |
| 20260505080109 | 20 | 224 | 1.6 | 11.3 | 0.00 | 0.00 | 0.00 | 65 | 1024.7 |
| 20260505074557 | 20 | 236 | 0.0 | 8.0 | 0.00 | 0.00 | 0.00 | 63 | 1024.6 |
| 20260505073058 | 20 | 275 | 1.6 | 9.7 | 0.00 | 0.00 | 0.00 | 62 | 1024.6 |
| 20260505071617 | 20 | 253 | 1.6 | 8.0 | 0.00 | 0.00 | 0.00 | 60 | 1024.7 |
| 20260505070056 | 21 | 233 | 3.2 | 11.3 | 0.00 | 0.00 | 0.00 | 61 | 1024.6 |
| 20260505064556 | 21 | 286 | 4.8 | 12.9 | 0.00 | 0.00 | 0.00 | 59 | 1024.5 |
| 20260505063054 | 21 | 0 | 1.6 | 12.9 | 0.00 | 0.00 | 0.00 | 57 | 1024.5 |
| 20260505061557 | 22 | 0 | 1.6 | 9.7 | 0.00 | 0.00 | 0.00 | 57 | 1024.4 |
| 20260505060055 | 22 | 224 | 1.6 | 12.9 | 0.00 | 0.00 | 0.00 | 56 | 1024.5 |
| 20260505054557 | 22 | 254 | 3.2 | 9.7 | 0.00 | 0.00 | 0.00 | 56 | 1024.5 |
| 20260505053105 | 22 | 256 | 1.6 | 6.4 | 0.00 | 0.00 | 0.00 | 55 | 1024.4 |
| 20260505051552 | 21 | 46 | 0.0 | 4.8 | 0.00 | 0.00 | 0.00 | 53 | 1024.7 |
| 20260505041554 | 21 | 282 | 0.0 | 6.4 | 0.00 | 0.00 | 0.00 | 54 | 1025.5 |
| 20260505040055 | 21 | 0 | 0.0 | 4.8 | 0.00 | 0.00 | 0.00 | 55 | 1025.6 |
| 20260505034554 | 20 | 0 | 0.0 | 3.2 | 0.00 | 0.00 | 0.00 | 57 | 1025.9 |
| 20260505033110 | 19 | 0 | 1.6 | 4.8 | 0.00 | 0.00 | 0.00 | 59 | 1026.1 |
| 20260505031552 | 18 | 0 | 0.0 | 4.8 | 0.00 | 0.00 | 0.00 | 61 | 1026.2 |
| 20260505030058 | 18 | 29 | 0.0 | 4.8 | 0.00 | 0.00 | 0.00 | 63 | 1026.3 |
| 20260505024555 | 18 | 0 | 0.0 | 4.8 | 0.00 | 0.00 | 0.00 | 65 | 1026.4 |
| 20260505023057 | 17 | 0 | 0.0 | 3.2 | 0.00 | 0.00 | 0.00 | 66 | 1026.4 |
| 20260505021552 | 17 | 0 | 0.0 | 3.2 | 0.00 | 0.00 | 0.00 | 68 | 1026.4 |
| 20260505020056 | 16 | 0 | 0.0 | 4.8 | 0.00 | 0.00 | 0.00 | 69 | 1026.5 |
| 20260505014555 | 16 | 0 | 0.0 | 3.2 | 0.00 | 0.00 | 0.00 | 70 | 1026.5 |
| 20260505013053 | 16 | 0 | 0.0 | 1.6 | 0.00 | 0.00 | 0.00 | 72 | 1026.5 |
| 20260505011557 | 15 | 0 | 0.0 | 3.2 | 0.00 | 0.00 | 0.00 | 73 | 1026.5 |
| 20260505010058 | 15 | 55 | 0.0 | 6.4 | 0.00 | 0.00 | 0.00 | 75 | 1026.5 |
| 20260505004553 | 14 | 0 | 0.0 | 3.2 | 0.00 | 0.00 | 0.00 | 77 | 1026.6 |
| 20260505003059 | 13 | 355 | 0.0 | 4.8 | 0.00 | 0.00 | 0.00 | 80 | 1026.6 |
| 20260505001553 | 12 | 0 | 0.0 | 3.2 | 0.00 | 0.00 | 0.00 | 83 | 1026.4 |
| 20260505000111 | 12 | 0 | 0.0 | 1.6 | 0.00 | 0.00 | 0.00 | 86 | 1026.3 |
| 20260504234555 | 10 | 68 | 0.0 | 1.6 | 0.00 | 0.00 | 0.00 | 88 | 1026.0 |
| 20260504233054 | 10 | 0 | 0.0 | 1.6 | 0.00 | 0.00 | 0.00 | 89 | 1025.7 |
| 20260504231555 | 8 | 0 | 0.0 | 0.0 | 0.00 | 0.00 | 0.00 | 89 | 1025.6 |
| 20260504230056 | 9 | 0 | 0.0 | 0.0 | 0.00 | 0.00 | 0.00 | 88 | 1025.4 |